Chester, CT

9:15 AM EDT on October 19, 2017 (GMT -0400)
Chester

Weather History for KSNC - January, 2014

Change the Weather History Date:

Sunday, January 5, 2014

  Actual Average (KHVN) Record (KHVN)
Temperature  
Mean Temperature 33 °F -  
Max Temperature 42 °F 37 °F 59 °F (2000)
Min Temperature 24 °F 25 °F 2 °F (1981)
Degree Days  
Heating Degree Days 32    
Moisture  
Dew Point 27 °F    
Average Humidity 86    
Maximum Humidity 100    
Minimum Humidity 59    
Precipitation  
Precipitation 0.00 in - - ()
Sea Level Pressure  
Sea Level Pressure 30.23 in    
Wind  
Wind Speed 3 mph (SW)    
Max Wind Speed 7 mph    
Max Gust Speed -    
Visibility 6 miles    
Events Fog , Rain    
Averages and records for this station are not official NWS values.
T = Trace of Precipitation, MM = Missing Value Source: NWS Daily Summary

Daily Weather History Graph

Daily Weather History Graph

Search for Another Location

Airport or City:

Trip Planner

Search our weather history database for the weather conditions in past years. The results will help you decide how hot, cold, wet, or windy it might be!

Date:

Astronomy

Jan. 05, 2014 Rise Set
Actual Time 7:16 AM EST 4:34 PM EST
Civil Twilight 6:45 AM EST 5:06 PM EST
Nautical Twilight 6:10 AM EST 5:40 PM EST
Astronomical Twilight 5:37 AM EST 6:14 PM EST
Moon 9:52 AM EST (1/5) 10:03 PM EST (1/5)
Length of Visible Light 10h 20m
Length of Day
9h 18m
Waxing Crescent, 24% of the Moon is Illuminated
Jan 5
Waxing Crescent
Jan 7
First Quarter
Jan 15
Full
Jan 24
Last Quarter
Jan 30
New

Hourly Weather History & Observations

Time (EST) Temp. Windchill Dew Point Humidity Pressure Visibility Wind Dir Wind Speed Gust Speed Precip Events Conditions
12:15 AM 28.4 °F 21.2 °F 15.8 °F 59% 30.28 in 10.0 mi WSW 6.9 mph - N/A   Clear
12:35 AM 28.4 °F 21.2 °F 15.8 °F 59% 30.28 in 10.0 mi SW 6.9 mph - N/A   Clear
12:55 AM 28.4 °F 22.2 °F 17.6 °F 64% 30.28 in 10.0 mi WSW 5.8 mph - N/A   Clear
1:15 AM 28.4 °F 24.6 °F 17.6 °F 64% 30.27 in 10.0 mi WSW 3.5 mph - N/A   Clear
1:35 AM 28.4 °F - 17.6 °F 64% 30.26 in 10.0 mi Calm Calm - N/A   Clear
1:55 AM 28.4 °F 24.6 °F 17.6 °F 64% 30.27 in 10.0 mi West 3.5 mph - N/A   Clear
2:15 AM 26.6 °F 22.6 °F 17.6 °F 69% 30.28 in 10.0 mi SW 3.5 mph - N/A   Clear
2:35 AM 26.6 °F - 15.8 °F 64% 30.28 in 10.0 mi Calm Calm - N/A   Clear
2:55 AM 26.6 °F - 15.8 °F 64% 30.28 in 10.0 mi Calm Calm - N/A   Clear
3:15 AM 26.6 °F 22.6 °F 14.0 °F 59% 30.27 in 10.0 mi West 3.5 mph - N/A   Clear
3:35 AM 24.8 °F 20.5 °F 14.0 °F 64% 30.27 in 10.0 mi WSW 3.5 mph - N/A   Clear
3:55 AM 26.6 °F 21.2 °F 15.8 °F 64% 30.27 in 10.0 mi WSW 4.6 mph - N/A   Clear
4:15 AM 26.6 °F 22.6 °F 15.8 °F 64% 30.26 in 10.0 mi WSW 3.5 mph - N/A   Clear
4:35 AM 24.8 °F 17.9 °F 17.6 °F 74% 30.26 in 10.0 mi WSW 5.8 mph - N/A   Clear
4:55 AM 26.6 °F 20.0 °F 17.6 °F 69% 30.26 in 10.0 mi WSW 5.8 mph - N/A   Clear
5:15 AM 26.6 °F 22.6 °F 17.6 °F 69% 30.26 in 10.0 mi WSW 3.5 mph - N/A   Clear
5:35 AM 26.6 °F 20.0 °F 19.4 °F 74% 30.27 in 10.0 mi WSW 5.8 mph - N/A   Clear
5:55 AM 24.8 °F - 17.6 °F 74% 30.28 in 10.0 mi Calm Calm - N/A   Clear
6:15 AM 24.8 °F 17.9 °F 19.4 °F 80% 30.29 in 10.0 mi WSW 5.8 mph - N/A   Clear
6:35 AM 26.6 °F 22.6 °F 19.4 °F 74% 30.29 in 10.0 mi WSW 3.5 mph - N/A   Clear
6:55 AM 24.8 °F 20.5 °F 19.4 °F 80% 30.29 in 10.0 mi WSW 3.5 mph - N/A   Clear
7:15 AM 24.8 °F - 19.4 °F 80% 30.28 in 10.0 mi Calm Calm - N/A   Clear
7:35 AM 26.6 °F - 21.2 °F 80% 30.29 in 10.0 mi Calm Calm - N/A   Clear
7:55 AM 26.6 °F - 23.0 °F 86% 30.30 in 10.0 mi Calm Calm - N/A   Partly Cloudy
8:15 AM 26.6 °F - 23.0 °F 86% 30.30 in 10.0 mi Calm Calm - N/A   Mostly Cloudy
8:35 AM 26.6 °F - 21.2 °F 80% 30.31 in 9.0 mi Calm Calm - N/A   Mostly Cloudy
8:55 AM 28.4 °F - 23.0 °F 80% 30.31 in 10.0 mi Calm Calm - N/A   Overcast
9:15 AM 28.4 °F - 23.0 °F 80% 30.31 in 10.0 mi Calm Calm - N/A   Overcast
9:35 AM 28.4 °F - 23.0 °F 80% 30.32 in 10.0 mi Calm Calm - N/A   Overcast
9:55 AM 28.4 °F - 23.0 °F 80% 30.32 in 10.0 mi Calm Calm - N/A   Overcast
10:15 AM 28.4 °F - 23.0 °F 80% 30.33 in 8.0 mi Calm Calm - N/A   Overcast
10:35 AM 28.4 °F - 24.8 °F 86% 30.32 in 2.0 mi Calm Calm - N/A   Light Freezing Rain
10:55 AM 30.2 °F - 28.4 °F 93% 30.30 in 1.8 mi Calm Calm - N/A   Overcast
11:15 AM 30.2 °F - 28.4 °F 93% 30.29 in 2.0 mi Calm Calm - N/A   Light Freezing Rain
11:35 AM 32.0 °F 28.7 °F 32.0 °F 100% 30.27 in 1.2 mi WSW 3.5 mph - N/A   Overcast
11:55 AM 32.0 °F - 32.0 °F 100% 30.26 in 0.8 mi Calm Calm - N/A Rain Light Rain
12:15 PM 32.0 °F - 32.0 °F 100% 30.26 in 1.0 mi Calm Calm - N/A   Light Drizzle
12:35 PM 33.8 °F - 33.8 °F 100% 30.25 in 1.2 mi Calm Calm - N/A   Overcast
12:55 PM 33.8 °F - 33.8 °F 100% 30.24 in 1.2 mi Calm Calm - N/A   Light Drizzle
1:15 PM 32.0 °F - 32.0 °F 100% 30.23 in 0.5 mi North - - N/A Fog Fog
1:35 PM 33.8 °F - 33.8 °F 100% 30.23 in 1.8 mi Calm Calm - N/A   Overcast
1:55 PM 33.8 °F - 33.8 °F 100% 30.22 in 0.5 mi Calm Calm - N/A Fog Fog
2:15 PM 33.8 °F - 33.8 °F 100% 30.21 in 0.5 mi Calm Calm - N/A Fog Fog
2:35 PM 33.8 °F - 33.8 °F 100% 30.21 in 0.5 mi Calm Calm - N/A Fog Fog
2:55 PM 33.8 °F - 33.8 °F 100% 30.21 in 0.5 mi Calm Calm - N/A Fog Fog
3:15 PM 33.8 °F - 33.8 °F 100% 30.21 in 1.0 mi Calm Calm - N/A   Overcast
3:35 PM 32.0 °F 28.7 °F 32.0 °F 100% 30.20 in 1.5 mi ENE 3.5 mph - N/A   Overcast
3:55 PM 33.8 °F - 33.8 °F 100% 30.20 in 2.5 mi Calm Calm - N/A   Overcast
4:15 PM 33.8 °F - 33.8 °F 100% 30.19 in 2.5 mi Calm Calm - N/A   Overcast
4:35 PM 33.8 °F - 33.8 °F 100% 30.17 in 1.5 mi Calm Calm - N/A   Overcast
4:55 PM 33.8 °F - 33.8 °F 100% 30.17 in 4.0 mi Calm Calm - N/A   Overcast
5:15 PM 33.8 °F - 33.8 °F 100% 30.17 in 2.5 mi Calm Calm - N/A   Overcast
5:35 PM 33.8 °F - 33.8 °F 100% 30.16 in 4.0 mi Calm Calm - N/A   Overcast
5:55 PM 35.6 °F 32.8 °F 35.6 °F 100% 30.15 in 7.0 mi East 3.5 mph - N/A   Overcast
6:15 PM 35.6 °F - 35.6 °F 100% 30.14 in 8.0 mi Calm Calm - N/A   Overcast
6:35 PM 35.6 °F - 35.6 °F 100% 30.13 in 8.0 mi Calm Calm - N/A   Overcast
6:55 PM 35.6 °F - 35.6 °F 100% 30.12 in 7.0 mi Calm Calm - N/A   Overcast
7:15 PM 35.6 °F - 35.6 °F 100% 30.11 in 5.0 mi Calm Calm - N/A   Overcast
7:35 PM 37.4 °F - 37.4 °F 100% 30.09 in 2.0 mi Calm Calm - N/A   Overcast
7:55 PM 37.4 °F - 37.4 °F 100% 30.08 in 0.2 mi Calm Calm - N/A Fog Fog
8:15 PM 39.2 °F - 39.2 °F 100% 30.07 in 0.2 mi Calm Calm - N/A Fog Fog
8:35 PM 39.2 °F 37.0 °F 39.2 °F 100% 30.05 in 0.2 mi SE 3.5 mph - N/A Fog Fog
8:55 PM 41.0 °F 38.0 °F 41.0 °F 100% 30.04 in 0.2 mi SE 4.6 mph - N/A Fog Fog
9:15 PM 42.8 °F 40.1 °F 42.8 °F 100% 30.02 in 0.2 mi SE 4.6 mph - N/A Fog Fog
9:35 PM 42.8 °F 38.6 °F 42.8 °F 100% 30.00 in 0.2 mi SE 6.9 mph - N/A Fog Fog